Location: *
(34.6903°N, 135.5184°E)
Time: 20:02:03
(UTC+00:00)

TSX-5 - Pass Details

Date: 22 September 2019
Orbit: 404 x 1333 km, 68.9° (Epoch: 19 October)

Event Time Altitude Azimuth Distance (km) Brightness Sun altitude
Exits shadow 19:09:06 82° 45° (NE) 425 3.2 -20.5°
Drops below altitude 10° 19:12:06 10° 24° (NNE) 1,464 6.5 -19.9°
Sets 19:14:06 0° 24° (NNE) 2,333 7.6 -19.5°
